ANA841 RJTT-WSSS

Flight info

Callsign ANA841
Flight time N/A
Altitude 38000
Route LAXAS Y56 TOHME Y54 KOHWA Y12 LAXEL Y52 IGURU G581 HCN/N0493F390 N892 MIGUG/K0911F390 N892 MESOX/K0906F400 N892 MELAS/N0491F400 N892 MABAL MABAL2A
Aircraft B789/H-SDE1E2E3FGHIJ2J3J4J5M1RWXY/LB1D1

Departure

Time N/A
Airport Tokyo Haneda International Airport (RJTT)

Arrival

Time 2026-05-03 22:13
Airport Singapore Changi Airport (WSSS)
Time Latitude Longitude Altitude Speed Heading
2026-05-03 20:15 12.81797 112.19797 37888 ft 492 kts 217°
2026-05-03 20:15 12.76207 112.15748 37885 ft 492 kts 217°
2026-05-03 20:16 12.70612 112.11697 37882 ft 492 kts 217°
2026-05-03 20:16 12.65032 112.07659 37876 ft 491 kts 217°
2026-05-03 20:17 12.59448 112.03620 37876 ft 492 kts 217°
2026-05-03 20:17 12.53851 111.99575 37877 ft 493 kts 217°
2026-05-03 20:18 12.49189 111.96207 37878 ft 493 kts 217°
2026-05-03 20:18 12.43584 111.92159 37878 ft 493 kts 217°
2026-05-03 20:19 12.37974 111.88111 37877 ft 494 kts 217°
2026-05-03 20:19 12.32367 111.84048 37879 ft 493 kts 218°
2026-05-03 20:20 12.26778 111.79975 37875 ft 494 kts 218°
2026-05-03 20:20 12.21177 111.75913 37875 ft 494 kts 218°
2026-05-03 20:21 12.15601 111.71861 37872 ft 494 kts 217°
2026-05-03 20:21 12.09998 111.67797 37874 ft 494 kts 218°
2026-05-03 20:22 12.04389 111.63728 37873 ft 494 kts 218°
2026-05-03 20:22 11.98780 111.59663 37871 ft 494 kts 217°
2026-05-03 20:23 11.93166 111.55595 37870 ft 495 kts 217°
2026-05-03 20:23 11.87544 111.51525 37869 ft 496 kts 217°
2026-05-03 20:24 11.81914 111.47450 37876 ft 496 kts 217°
2026-05-03 20:24 11.76285 111.43378 37869 ft 496 kts 217°
2026-05-03 20:25 11.70647 111.39302 37869 ft 497 kts 217°
2026-05-03 20:25 11.65004 111.35223 37874 ft 498 kts 217°
2026-05-03 20:26 11.59387 111.31167 37875 ft 498 kts 217°
2026-05-03 20:26 11.53728 111.27081 37874 ft 498 kts 217°
2026-05-03 20:27 11.48072 111.23000 37872 ft 497 kts 217°
2026-05-03 20:27 11.42423 111.18926 37872 ft 497 kts 217°
2026-05-03 20:28 11.36769 111.14851 37870 ft 498 kts 217°
2026-05-03 20:28 11.31113 111.10776 37869 ft 498 kts 217°
2026-05-03 20:29 11.25436 111.06731 37870 ft 498 kts 216°
2026-05-03 20:29 11.19746 111.02704 37870 ft 498 kts 217°
2026-05-03 20:30 11.14098 110.98688 37873 ft 499 kts 216°
2026-05-03 20:30 11.08396 110.94652 37874 ft 500 kts 216°
2026-05-03 20:31 11.02680 110.90596 37876 ft 501 kts 216°
2026-05-03 20:31 10.96956 110.86544 37876 ft 501 kts 216°
2026-05-03 20:32 10.91226 110.82485 37873 ft 501 kts 216°
2026-05-03 20:32 10.85499 110.78433 37872 ft 501 kts 216°
2026-05-03 20:33 10.79773 110.74382 37879 ft 501 kts 216°
2026-05-03 20:33 10.74088 110.70362 37877 ft 501 kts 216°
2026-05-03 20:34 10.68360 110.66314 37877 ft 501 kts 216°
2026-05-03 20:34 10.62641 110.62274 37880 ft 500 kts 216°
2026-05-03 20:35 10.56925 110.58238 37872 ft 501 kts 216°
2026-05-03 20:35 10.51198 110.54196 37879 ft 501 kts 216°
2026-05-03 20:36 10.45461 110.50149 37882 ft 503 kts 215°
2026-05-03 20:36 10.39708 110.46093 37885 ft 503 kts 215°
2026-05-03 20:37 10.33964 110.42044 37883 ft 502 kts 215°
2026-05-03 20:37 10.28217 110.37996 37880 ft 502 kts 215°
2026-05-03 20:38 10.22484 110.33959 37883 ft 502 kts 215°
2026-05-03 20:38 10.16749 110.29907 37881 ft 502 kts 215°
2026-05-03 20:39 10.11023 110.25856 37882 ft 502 kts 215°
2026-05-03 20:39 10.05286 110.21805 37880 ft 502 kts 215°
2026-05-03 20:40 9.99550 110.17751 37882 ft 503 kts 215°
2026-05-03 20:40 9.93816 110.13704 37884 ft 502 kts 215°
2026-05-03 20:41 9.88085 110.09659 37882 ft 502 kts 215°
2026-05-03 20:41 9.82345 110.05610 37875 ft 503 kts 215°
2026-05-03 20:42 9.76642 110.01589 37875 ft 502 kts 215°
2026-05-03 20:42 9.70905 109.97545 37876 ft 503 kts 215°
2026-05-03 20:43 9.65152 109.93492 37879 ft 504 kts 215°
2026-05-03 20:43 9.59399 109.89441 37876 ft 504 kts 215°
2026-05-03 20:44 9.53642 109.85389 37881 ft 504 kts 215°
2026-05-03 20:44 9.47881 109.81337 37879 ft 504 kts 215°
2026-05-03 20:45 9.42120 109.77292 37879 ft 504 kts 215°
2026-05-03 20:45 9.36366 109.73250 37879 ft 503 kts 215°
2026-05-03 20:46 9.30647 109.69236 37875 ft 503 kts 215°
2026-05-03 20:46 9.24895 109.65199 37881 ft 503 kts 215°
2026-05-03 20:47 9.19145 109.61167 37878 ft 502 kts 215°
2026-05-03 20:47 9.13397 109.57136 37879 ft 502 kts 215°
2026-05-03 20:48 9.07648 109.53107 37879 ft 502 kts 215°
2026-05-03 20:48 9.01913 109.49089 37875 ft 501 kts 214°
2026-05-03 20:49 8.96172 109.45070 37871 ft 501 kts 214°
2026-05-03 20:49 8.90445 109.41060 37873 ft 501 kts 214°
2026-05-03 20:50 8.84712 109.37049 37874 ft 501 kts 214°
2026-05-03 20:50 8.78979 109.33047 37876 ft 500 kts 214°
2026-05-03 20:51 8.73234 109.29060 37873 ft 501 kts 214°
2026-05-03 20:51 8.67539 109.25096 37877 ft 500 kts 214°
2026-05-03 20:52 8.61808 109.21117 37876 ft 501 kts 214°
2026-05-03 20:52 8.56070 109.17130 37870 ft 500 kts 214°
2026-05-03 20:53 8.50341 109.13152 37873 ft 499 kts 214°
2026-05-03 20:53 8.44622 109.09183 37874 ft 499 kts 214°
2026-05-03 20:54 8.38895 109.05209 37871 ft 499 kts 214°
2026-05-03 20:54 8.30306 108.99252 37875 ft 499 kts 214°
2026-05-03 20:55 8.24579 108.95282 37872 ft 499 kts 214°
2026-05-03 20:55 8.18861 108.91319 37877 ft 499 kts 214°
2026-05-03 20:56 8.13140 108.87357 37875 ft 498 kts 214°
2026-05-03 20:56 8.07421 108.83396 37876 ft 499 kts 213°
2026-05-03 20:57 8.01694 108.79431 37877 ft 499 kts 213°
2026-05-03 20:57 7.95964 108.75467 37872 ft 499 kts 213°
2026-05-03 20:58 7.90235 108.71503 37870 ft 499 kts 213°
2026-05-03 20:58 7.84505 108.67541 37877 ft 500 kts 213°
2026-05-03 20:59 7.78804 108.63600 37871 ft 501 kts 213°
2026-05-03 20:59 7.73054 108.59626 37874 ft 501 kts 213°
2026-05-03 21:00 7.69212 108.56972 37876 ft 501 kts 213°
2026-05-03 21:00 7.61564 108.51690 37875 ft 501 kts 213°
2026-05-03 21:01 7.55816 108.47722 37878 ft 500 kts 213°
2026-05-03 21:01 7.50070 108.43756 37878 ft 501 kts 213°
2026-05-03 21:02 7.44311 108.39784 37874 ft 502 kts 213°
2026-05-03 21:02 7.38548 108.35808 37875 ft 502 kts 213°
2026-05-03 21:03 7.32778 108.31830 37876 ft 502 kts 213°
2026-05-03 21:03 7.27009 108.27854 37873 ft 502 kts 213°
2026-05-03 21:04 7.21237 108.23877 37870 ft 503 kts 213°
2026-05-03 21:04 7.15504 108.19928 37859 ft 502 kts 213°
2026-05-03 21:05 7.09741 108.15960 37855 ft 501 kts 213°
2026-05-03 21:05 7.04009 108.11978 37856 ft 500 kts 214°
2026-05-03 21:06 6.98289 108.07978 37859 ft 501 kts 213°
2026-05-03 21:06 6.93510 108.04657 37864 ft 502 kts 214°
2026-05-03 21:07 6.87769 108.00649 37858 ft 502 kts 214°
2026-05-03 21:07 6.82025 107.96653 37865 ft 502 kts 214°
2026-05-03 21:08 6.76284 107.92653 37860 ft 501 kts 214°
2026-05-03 21:08 6.70551 107.88663 37858 ft 501 kts 214°
2026-05-03 21:09 6.64802 107.84662 37860 ft 503 kts 214°
2026-05-03 21:09 6.59044 107.80656 37861 ft 503 kts 214°
2026-05-03 21:10 6.53291 107.76655 37862 ft 503 kts 214°
2026-05-03 21:10 6.47542 107.72657 37861 ft 503 kts 213°
2026-05-03 21:11 6.41779 107.68651 37865 ft 504 kts 213°
2026-05-03 21:11 6.36005 107.64639 37866 ft 505 kts 213°
2026-05-03 21:12 6.30264 107.60650 37859 ft 505 kts 213°
2026-05-03 21:12 6.24486 107.56637 37864 ft 505 kts 214°
2026-05-03 21:13 6.18667 107.52596 37860 ft 505 kts 214°
2026-05-03 21:13 6.12893 107.48589 37862 ft 504 kts 214°
2026-05-03 21:14 6.07157 107.44608 37858 ft 505 kts 213°
2026-05-03 21:14 6.01374 107.40596 37856 ft 505 kts 213°
2026-05-03 21:15 5.95602 107.36592 37857 ft 504 kts 214°
2026-05-03 21:15 5.89839 107.32596 37856 ft 503 kts 213°
2026-05-03 21:16 5.84080 107.28603 37856 ft 503 kts 214°
2026-05-03 21:16 5.78314 107.24607 37857 ft 503 kts 213°
2026-05-03 21:17 5.73532 107.21293 37853 ft 502 kts 214°
2026-05-03 21:17 5.66816 107.16640 37854 ft 501 kts 213°
2026-05-03 21:18 5.61080 107.12668 37854 ft 500 kts 213°
2026-05-03 21:18 5.55354 107.08704 37855 ft 500 kts 213°
2026-05-03 21:19 5.49631 107.04742 37853 ft 500 kts 214°
2026-05-03 21:19 5.43910 107.00783 37856 ft 499 kts 214°
2026-05-03 21:20 5.38202 106.96833 37856 ft 498 kts 214°
2026-05-03 21:20 5.32499 106.92888 37858 ft 498 kts 214°
2026-05-03 21:21 5.26838 106.88973 37860 ft 497 kts 214°
2026-05-03 21:21 5.21140 106.85034 37859 ft 498 kts 214°
2026-05-03 21:22 5.15438 106.81092 37864 ft 497 kts 214°
2026-05-03 21:22 5.09740 106.77154 37863 ft 498 kts 214°
2026-05-03 21:23 5.04035 106.73211 37860 ft 498 kts 214°
2026-05-03 21:23 4.98332 106.69272 37863 ft 497 kts 214°
2026-05-03 21:24 4.92624 106.65330 37866 ft 499 kts 214°
2026-05-03 21:24 4.86899 106.61377 37867 ft 499 kts 214°
2026-05-03 21:25 4.81207 106.57447 37864 ft 499 kts 214°
2026-05-03 21:25 4.75488 106.53499 37861 ft 499 kts 214°
2026-05-03 21:26 4.69772 106.49555 37863 ft 499 kts 214°
2026-05-03 21:26 4.64050 106.45607 37863 ft 499 kts 214°
2026-05-03 21:27 4.58329 106.41660 37862 ft 499 kts 214°
2026-05-03 21:27 4.52618 106.37722 37862 ft 498 kts 214°
2026-05-03 21:28 4.46922 106.33794 37860 ft 497 kts 214°
2026-05-03 21:28 4.41216 106.29860 37859 ft 498 kts 214°
2026-05-03 21:29 4.35516 106.25931 37858 ft 497 kts 214°
2026-05-03 21:29 4.29844 106.21972 37877 ft 497 kts 220°
2026-05-03 21:30 4.27378 106.19551 37890 ft 498 kts 231°
2026-05-03 21:30 4.25178 106.16857 37864 ft 500 kts 230°
2026-05-03 21:30 4.20812 106.11445 37859 ft 499 kts 230°
2026-05-03 21:31 4.16423 106.06054 37861 ft 499 kts 231°
2026-05-03 21:31 4.12055 106.00665 37862 ft 497 kts 231°
2026-05-03 21:32 4.07710 105.95317 37861 ft 498 kts 231°
2026-05-03 21:32 4.03339 105.89933 37856 ft 498 kts 231°
2026-05-03 21:33 3.98965 105.84549 37858 ft 499 kts 231°
2026-05-03 21:33 3.94587 105.79160 37857 ft 499 kts 231°
2026-05-03 21:34 3.90205 105.73767 37857 ft 499 kts 231°
2026-05-03 21:34 3.85824 105.68376 37861 ft 500 kts 231°
2026-05-03 21:35 3.81437 105.62979 37862 ft 500 kts 231°
2026-05-03 21:35 3.77050 105.57583 37862 ft 500 kts 231°
2026-05-03 21:36 3.72660 105.52183 37861 ft 500 kts 231°
2026-05-03 21:36 3.68282 105.46774 37862 ft 500 kts 231°
2026-05-03 21:37 3.63890 105.41356 37856 ft 501 kts 231°
2026-05-03 21:37 3.59501 105.35940 37860 ft 500 kts 231°
2026-05-03 21:38 3.55120 105.30536 37860 ft 500 kts 231°
2026-05-03 21:38 3.50737 105.25131 37859 ft 500 kts 231°
2026-05-03 21:39 3.46364 105.19737 37857 ft 498 kts 231°
2026-05-03 21:39 3.41997 105.14354 37856 ft 497 kts 231°
2026-05-03 21:40 3.37668 105.09018 37859 ft 497 kts 231°
2026-05-03 21:40 3.33309 105.03647 37856 ft 497 kts 231°
2026-05-03 21:41 3.28948 104.98273 37856 ft 497 kts 231°
2026-05-03 21:41 3.24592 104.92906 37859 ft 496 kts 231°
2026-05-03 21:42 3.20244 104.87549 37859 ft 495 kts 231°
2026-05-03 21:42 3.15894 104.82192 37298 ft 498 kts 231°
2026-05-03 21:43 3.13711 104.79503 36895 ft 499 kts 231°
2026-05-03 21:43 3.11521 104.76807 36497 ft 499 kts 231°
2026-05-03 21:43 3.09327 104.74105 36101 ft 500 kts 231°
2026-05-03 21:43 3.07130 104.71400 35710 ft 501 kts 231°
2026-05-03 21:44 3.04927 104.68688 35294 ft 502 kts 231°
2026-05-03 21:44 3.02635 104.66047 34879 ft 503 kts 226°
2026-05-03 21:44 3.00227 104.63488 34432 ft 505 kts 227°
2026-05-03 21:44 2.97827 104.60919 34030 ft 506 kts 227°
2026-05-03 21:45 2.95452 104.58373 33590 ft 507 kts 227°
2026-05-03 21:45 2.93038 104.55793 33103 ft 509 kts 227°
2026-05-03 21:45 2.90610 104.53202 32612 ft 510 kts 227°
2026-05-03 21:45 2.88184 104.50610 32133 ft 511 kts 226°
2026-05-03 21:46 2.85750 104.48006 31631 ft 512 kts 226°
2026-05-03 21:46 2.83315 104.45403 31127 ft 513 kts 226°
2026-05-03 21:46 2.80870 104.42792 30610 ft 515 kts 226°
2026-05-03 21:46 2.78425 104.40180 30079 ft 511 kts 226°
2026-05-03 21:47 2.75996 104.37585 29190 ft 511 kts 226°
2026-05-03 21:47 2.73569 104.34992 28384 ft 508 kts 226°
2026-05-03 21:47 2.71163 104.32421 27593 ft 505 kts 226°
2026-05-03 21:47 2.68770 104.29865 26813 ft 502 kts 226°
2026-05-03 21:48 2.66383 104.27315 26034 ft 500 kts 226°
2026-05-03 21:48 2.64015 104.24785 25272 ft 498 kts 226°
2026-05-03 21:48 2.61647 104.22257 24502 ft 496 kts 226°
2026-05-03 21:48 2.59293 104.19743 23753 ft 494 kts 226°
2026-05-03 21:49 2.56950 104.17241 22951 ft 491 kts 226°
2026-05-03 21:49 2.54672 104.14854 22219 ft 466 kts 222°
2026-05-03 21:49 2.52122 104.12884 21520 ft 460 kts 210°
2026-05-03 21:49 2.49272 104.11495 21003 ft 451 kts 198°
2026-05-03 21:50 2.46293 104.10718 20894 ft 435 kts 187°
2026-05-03 21:50 2.43287 104.10513 20923 ft 436 kts 179°
2026-05-03 21:50 2.40225 104.10494 20938 ft 445 kts 179°
2026-05-03 21:50 2.37125 104.10490 20952 ft 446 kts 178°
2026-05-03 21:51 2.34025 104.10502 20955 ft 446 kts 179°
2026-05-03 21:51 2.30923 104.10506 20963 ft 446 kts 179°
2026-05-03 21:51 2.27822 104.10501 20964 ft 446 kts 179°
2026-05-03 21:51 2.24759 104.10497 20970 ft 446 kts 179°
2026-05-03 21:52 2.21653 104.10500 20975 ft 446 kts 179°
2026-05-03 21:52 2.18548 104.10502 20978 ft 446 kts 179°
2026-05-03 21:52 2.15442 104.10501 20979 ft 446 kts 179°
2026-05-03 21:52 2.12341 104.10499 20992 ft 446 kts 179°
2026-05-03 21:53 2.09236 104.10500 20987 ft 446 kts 179°
2026-05-03 21:53 2.06134 104.10501 20993 ft 446 kts 179°
2026-05-03 21:53 2.03032 104.10501 20990 ft 446 kts 179°
2026-05-03 21:53 1.99931 104.10500 20856 ft 448 kts 179°
2026-05-03 21:54 1.96804 104.10502 20114 ft 448 kts 178°
2026-05-03 21:54 1.94749 104.10511 19713 ft 445 kts 178°
2026-05-03 21:54 1.91700 104.10532 19123 ft 440 kts 178°
2026-05-03 21:54 1.88657 104.10549 18522 ft 430 kts 178°
2026-05-03 21:55 1.85786 104.10555 17926 ft 397 kts 178°
2026-05-03 21:55 1.83133 104.10565 17434 ft 366 kts 178°
2026-05-03 21:55 1.80696 104.10577 17058 ft 337 kts 178°
2026-05-03 21:55 1.78423 104.10590 16605 ft 316 kts 178°
2026-05-03 21:56 1.76288 104.10599 16187 ft 297 kts 178°
2026-05-03 21:56 1.74259 104.10608 15836 ft 289 kts 178°
2026-05-03 21:56 1.72271 104.10618 15533 ft 282 kts 178°
2026-05-03 21:56 1.70330 104.10627 15206 ft 276 kts 178°
2026-05-03 21:57 1.68424 104.10635 14870 ft 271 kts 178°
2026-05-03 21:57 1.66558 104.10644 14541 ft 266 kts 178°
2026-05-03 21:57 1.64724 104.10652 14214 ft 261 kts 178°
2026-05-03 21:57 1.62920 104.10661 13897 ft 257 kts 178°
2026-05-03 21:58 1.61151 104.10722 13563 ft 251 kts 169°
2026-05-03 21:58 1.59453 104.11014 13262 ft 245 kts 170°
2026-05-03 21:58 1.57779 104.11233 12977 ft 239 kts 171°
2026-05-03 21:58 1.56150 104.11458 12697 ft 234 kts 170°
2026-05-03 21:59 1.54559 104.11695 12425 ft 229 kts 170°
2026-05-03 21:59 1.53003 104.11927 12159 ft 224 kts 170°
2026-05-03 21:59 1.51478 104.12151 11890 ft 219 kts 170°
2026-05-03 21:59 1.49984 104.12369 11634 ft 214 kts 171°
2026-05-03 22:00 1.48542 104.12581 11393 ft 210 kts 171°
2026-05-03 22:00 1.47095 104.12794 11141 ft 205 kts 171°
2026-05-03 22:00 1.45726 104.12937 10880 ft 199 kts 182°
2026-05-03 22:00 1.44476 104.12436 10712 ft 192 kts 210°
2026-05-03 22:01 1.43261 104.11901 10496 ft 189 kts 199°
2026-05-03 22:01 1.42046 104.11450 10272 ft 184 kts 201°
2026-05-03 22:01 1.40862 104.10960 10051 ft 189 kts 202°
2026-05-03 22:01 1.39525 104.10390 9724 ft 233 kts 203°
2026-05-03 22:02 1.37942 104.09717 9151 ft 253 kts 203°
2026-05-03 22:02 1.36316 104.09029 8697 ft 253 kts 203°
2026-05-03 22:02 1.34706 104.08347 8336 ft 250 kts 203°
2026-05-03 22:02 1.33112 104.07672 8004 ft 249 kts 203°
2026-05-03 22:03 1.31521 104.06998 7674 ft 248 kts 203°
2026-05-03 22:03 1.29933 104.06326 7334 ft 246 kts 203°
2026-05-03 22:03 1.28375 104.05666 7029 ft 240 kts 203°
2026-05-03 22:03 1.26854 104.05022 6736 ft 235 kts 203°
2026-05-03 22:04 1.25368 104.04393 6464 ft 229 kts 204°
2026-05-03 22:04 1.23925 104.03782 6201 ft 221 kts 204°
2026-05-03 22:04 1.22533 104.03193 5945 ft 214 kts 204°
2026-05-03 22:04 1.21184 104.02621 5713 ft 207 kts 204°
2026-05-03 22:05 1.19880 104.02069 5483 ft 200 kts 204°
2026-05-03 22:05 1.18622 104.01537 5273 ft 193 kts 204°
2026-05-03 22:05 1.17413 104.01025 5084 ft 185 kts 204°
2026-05-03 22:05 1.16247 104.00530 4876 ft 179 kts 204°
2026-05-03 22:06 1.15271 103.99832 4606 ft 171 kts 236°
2026-05-03 22:06 1.14995 103.98722 4425 ft 172 kts 271°
2026-05-03 22:06 1.15506 103.97663 4196 ft 173 kts 313°
2026-05-03 22:06 1.16513 103.96973 3997 ft 178 kts 328°
2026-05-03 22:07 1.17560 103.96347 3772 ft 174 kts 328°
2026-05-03 22:07 1.18589 103.95714 3533 ft 173 kts 328°
2026-05-03 22:07 1.19608 103.95080 3306 ft 172 kts 328°
2026-05-03 22:07 1.20623 103.94449 3074 ft 171 kts 328°
2026-05-03 22:08 1.21635 103.93820 2845 ft 171 kts 328°
2026-05-03 22:08 1.22647 103.93202 2618 ft 171 kts 330°
2026-05-03 22:08 1.23782 103.93058 2295 ft 165 kts 14°
2026-05-03 22:08 1.24868 103.93429 2163 ft 167 kts 19°
2026-05-03 22:09 1.25950 103.93859 1953 ft 167 kts 22°
2026-05-03 22:09 1.27023 103.94304 1737 ft 167 kts 23°
2026-05-03 22:09 1.28090 103.94764 1515 ft 167 kts 23°
2026-05-03 22:10 1.30214 103.95682 1084 ft 166 kts 23°
2026-05-03 22:10 1.31061 103.96048 916 ft 166 kts 23°
2026-05-03 22:10 1.32117 103.96504 687 ft 165 kts 23°
2026-05-03 22:10 1.33166 103.96958 473 ft 164 kts 23°
2026-05-03 22:11 1.34202 103.97425 257 ft 163 kts 24°
2026-05-03 22:11 1.35218 103.97888 51 ft 161 kts 22°
2026-05-03 22:11 1.36113 103.98230 31 ft 105 kts 26°
2026-05-03 22:11 1.36648 103.98464 31 ft 76 kts 23°
2026-05-03 22:12 1.36854 103.98553 29 ft 70 kts 23°
2026-05-03 22:12 1.37127 103.98672 27 ft 58 kts 23°
2026-05-03 22:13 1.37471 103.98821 27 ft 50 kts 26°
2026-05-03 22:13 1.37774 103.98950 28 ft 45 kts 21°
2026-05-03 22:13 1.38044 103.99076 28 ft 41 kts 33°
2026-05-03 22:13 1.38066 103.99211 26 ft 18 kts 127°
2026-05-03 22:14 1.37975 103.99237 31 ft 12 kts 191°
2026-05-03 22:14 1.37911 103.99213 30 ft 8 kts 204°
2026-05-03 22:14 1.37836 103.99180 27 ft 13 kts 203°
2026-05-03 22:14 1.37705 103.99124 27 ft 37 kts 203°
2026-05-03 22:15 1.37282 103.98948 27 ft 96 kts 203°
2026-05-03 22:15 1.36720 103.98711 30 ft 79 kts 203°
2026-05-03 22:15 1.36328 103.98546 32 ft 41 kts 203°
2026-05-03 22:15 1.36118 103.98499 32 ft 22 kts 147°
2026-05-03 22:16 1.36046 103.98602 32 ft 14 kts 140°
2026-05-03 22:16 1.35993 103.98665 32 ft 10 kts 112°
2026-05-03 22:16 1.35980 103.98698 32 ft 0 kts 112°